Wind_Speed
33 34 33 33 33 33 35 36 38 39 40 41 42 42 43 44 45 45 46 46 46 47 47 47 47 48 48 48 49 49 50 51 52 51 53 54 54 54 54 55 55 55 55
36 36 36 36 36 36 36 36 37 38 40 41 41 42 43 44 45 45 46 47 47 48 48 49 49 49 49 50 50 51 52 53 53 53 54 55 54 54 54 55 56 55 56
38 39 38 38 38 38 38 38 39 40 41 42 43 43 44 45 46 47 47 47 47 48 49 50 51 50 50 51 52 53 54 55 55 54 54 54 54 54 54 55 55 55 55
40 40 40 40 41 41 41 41 42 43 43 44 45 45 45 46 47 48 49 49 49 50 51 51 52 53 54 54 55 55 55 55 54 54 54 53 54 54 55 55 55 55 55
42 42 42 42 43 44 44 45 45 45 46 46 47 47 47 49 49 50 51 51 52 52 53 53 54 55 55 56 56 55 55 55 54 54 54 54 55 55 56 56 56 55 55
42 43 43 43 44 45 46 47 47 47 48 48 48 49 50 50 51 52 52 53 53 54 54 55 55 55 55 56 56 55 55 55 55 55 55 55 55 56 56 57 56 55 55
43 43 44 45 45 46 47 48 48 48 48 49 49 50 51 52 53 53 54 54 54 55 54 55 55 55 56 56 56 56 56 56 57 57 56 56 56 57 57 57 57 56 55
44 44 45 45 46 46 47 48 48 49 49 49 49 50 51 51 52 53 53 54 55 54 54 54 55 55 55 56 56 57 57 57 58 57 57 56 56 56 56 56 56 57 55
45 45 45 46 46 47 48 49 50 50 50 50 50 50 51 51 52 52 53 54 54 54 55 55 55 55 55 56 57 57 57 57 57 57 57 57 56 55 56 56 56 56 54
46 46 47 47 48 48 49 50 50 50 50 50 50 50 51 51 52 52 53 54 54 55 55 55 55 55 55 56 56 56 56 55 55 55 55 56 56 55 55 55 55 55 54
46 47 48 48 48 49 49 49 49 49 49 49 50 50 51 51 51 52 53 54 55 55 54 55 55 56 56 56 55 55 55 54 54 54 53 53 54 54 54 54 54 53 53
46 47 47 48 48 48 48 48 48 49 49 50 50 50 51 51 52 53 53 54 55 55 54 54 54 55 55 54 54 54 53 53 52 51 51 51 51 52 52 52 52 52 52
45 45 46 46 46 46 46 47 47 48 49 50 50 51 51 52 53 53 54 54 54 54 54 54 54 53 53 53 52 52 51 51 50 49 49 49 49 50 50 49 49 49 49
43 44 44 45 45 45 45 46 47 47 48 48 50 51 51 52 53 53 54 53 53 53 52 52 51 51 51 51 49 49 49 49 48 48 48 48 48 48 48 47 46 46 46
43 43 44 44 44 44 45 45 46 46 47 48 49 50 50 50 51 52 51 51 50 50 50 49 49 48 48 47 47 47 47 47 47 48 47 47 47 47 46 45 45 45 44
42 43 43 43 43 44 44 45 45 46 47 48 48 49 49 50 50 49 49 48 48 48 48 47 47 46 45 45 45 45 46 46 46 46 46 46 46 45 44 44 44 43 43
41 42 42 42 43 43 44 45 45 46 46 47 48 48 48 48 48 47 47 47 46 46 46 45 44 43 43 43 43 43 43 44 44 44 45 44 44 43 42 42 41 41 40
41 42 42 43 43 44 44 44 45 45 45 45 46 46 46 46 45 45 45 45 44 43 43 42 41 41 41 41 41 41 41 42 42 42 42 42 41 40 40 39 39 38 37
41 41 42 43 43 44 44 44 44 44 45 44 44 43 43 42 42 42 42 42 41 41 40 40 40 40 40 39 39 39 40 40 40 40 40 39 39 38 37 36 36 35 34
40 41 42 42 42 42 43 43 43 43 43 42 41 40 39 39 39 39 39 39 40 39 39 39 39 38 38 37 37 37 37 37 37 37 37 37 36 35 35 34 33 33 32
39 40 41 41 41 41 41 42 42 41 40 39 38 38 37 37 37 37 38 38 37 37 37 36 35 35 34 34 34 34 34 34 35 35 34 33 33 32 31 31 31 31 30
39 39 40 40 40 41 40 40 39 39 37 36 36 36 36 35 35 35 35 34 34 34 33 33 32 32 32 32 32 33 33 32 32 31 31 31 30 30 29 29 29 29 29
39 39 39 39 39 39 39 38 37 37 36 35 34 34 34 33 33 33 33 32 31 31 31 31 31 31 31 31 31 31 31 30 30 29 29 28 28 28 28 28 28 28 28
38 38 38 38 38 38 37 36 35 34 34 33 33 32 32 32 32 32 31 30 30 30 30 30 30 30 30 30 30 29 29 28 28 27 27 27 27 27 27 27 27 26 26
37 37 37 37 36 36 35 34 33 33 32 31 31 31 31 31 31 30 29 28 28 28 28 28 28 28 28 28 27 27 27 27 26 26 26 26 25 25 25 25 25 24 23
34 34 34 34 34 33 33 32 31 31 31 30 30 30 30 30 29 28 27 26 26 26 26 26 26 26 25 25 25 25 25 24 24 24 24 24 24 24 23 22 22 22 21
Wind_Direction
247 249 252 255 258 259 258 258 258 259 262 263 263 264 266 267 270 270 271 270 271 271 271 271 272 273 274 274 275 276 277 278 277 277 278 279 280 281 281 281 281 282 281
249 250 254 255 257 259 261 262 263 263 263 264 264 266 268 269 270 271 271 271 272 272 272 272 273 274 275 276 276 278 278 278 278 278 279 280 280 281 281 281 281 282 282
251 252 255 257 258 259 260 261 263 264 265 265 266 268 269 270 271 272 271 272 273 273 272 273 274 274 275 276 277 279 279 279 279 279 280 280 280 281 282 282 281 281 282
252 254 255 257 259 260 261 263 264 265 266 266 267 268 269 271 271 271 271 272 272 273 273 274 275 276 276 277 279 280 281 280 280 280 279 280 280 281 282 282 282 282 283
254 255 257 258 261 262 262 264 266 267 268 268 268 268 269 270 271 271 271 272 272 272 273 274 275 276 278 279 279 280 280 280 279 280 280 280 281 281 282 282 282 282 283
256 257 258 260 261 262 263 265 267 268 269 269 271 271 271 272 273 272 272 272 272 273 273 274 275 276 278 278 279 279 279 280 280 280 281 281 281 281 282 282 283 283 283
257 259 260 262 263 264 265 267 268 269 270 272 273 273 273 273 273 273 273 274 274 274 275 276 277 278 279 279 279 279 280 280 281 281 281 282 282 282 283 283 284 284 284
258 260 262 263 264 265 267 269 270 271 272 273 274 274 274 273 273 274 274 275 276 276 277 278 279 279 278 279 279 280 280 280 281 281 281 282 282 282 282 283 283 284 284
260 262 264 265 266 267 268 270 271 271 272 273 274 274 275 274 274 274 275 276 276 276 277 278 279 279 279 279 280 281 281 281 281 281 282 281 281 281 281 282 283 284 284
262 264 266 267 268 269 270 271 272 272 272 273 274 275 276 275 275 276 277 277 277 276 277 277 278 279 279 280 280 280 281 281 281 282 282 281 281 280 281 282 283 284 284
264 265 267 268 269 270 271 272 272 272 273 273 274 275 276 276 276 276 277 278 278 277 277 278 278 279 280 280 280 281 281 281 282 282 282 282 282 282 281 282 284 285 285
266 267 268 269 269 270 271 272 273 273 273 274 275 275 276 276 277 277 278 278 278 278 278 278 278 279 280 280 280 280 281 281 282 282 282 282 283 283 282 283 283 283 284
266 267 268 268 269 269 271 272 273 274 274 275 275 276 277 278 278 278 279 279 279 279 279 279 279 280 280 280 279 279 280 280 281 282 283 283 283 283 283 284 284 283 284
265 265 266 266 268 269 271 272 274 275 275 276 276 277 277 278 278 279 279 279 279 280 280 280 279 280 280 279 278 278 278 279 280 281 282 283 283 284 284 284 284 284 284
264 265 265 267 269 270 272 274 275 276 276 278 278 279 279 279 279 280 280 280 279 279 279 279 279 279 278 278 277 277 278 279 280 282 282 283 283 284 284 284 284 284 284
264 265 266 268 270 272 273 275 277 278 278 279 280 280 280 280 280 280 280 280 279 279 279 279 279 279 278 278 278 278 279 280 281 282 283 283 283 283 283 284 284 284 285
265 267 268 270 271 273 275 277 278 278 279 279 280 281 281 281 281 280 280 280 280 279 279 279 278 278 279 279 280 280 280 281 282 283 283 283 283 283 283 283 283 283 284
266 267 269 270 272 274 276 277 279 280 279 280 281 282 281 281 281 281 281 280 280 280 279 279 279 278 279 279 280 281 281 282 282 283 283 283 282 282 282 283 282 283 283
268 269 270 272 273 275 276 278 279 280 281 281 280 280 280 280 280 280 280 280 280 279 278 278 278 278 279 280 281 281 282 281 281 282 282 282 282 282 282 282 282 283 283
269 270 271 272 273 274 276 277 279 280 281 281 280 279 279 280 280 280 280 280 280 279 278 278 278 278 278 279 280 281 281 281 281 282 282 281 281 281 282 281 281 282 283
271 272 272 273 274 275 276 277 278 279 280 280 280 280 281 281 281 280 280 280 280 280 279 279 278 277 278 278 279 280 282 282 282 281 281 280 280 280 281 281 282 282 283
272 273 273 274 275 276 277 278 278 278 278 279 280 281 281 281 282 283 282 281 280 280 280 278 277 278 279 280 280 280 280 281 281 280 280 279 279 280 280 281 282 282 283
274 274 275 275 276 277 277 277 277 277 277 278 279 280 280 281 282 282 282 281 281 281 280 280 279 279 280 280 280 279 279 279 279 279 279 279 280 280 281 281 281 282 283
274 275 276 276 276 277 276 276 276 275 276 277 277 278 279 280 281 281 282 281 282 281 280 279 280 280 280 279 278 278 278 278 278 278 278 279 280 281 281 281 282 283 284
275 275 275 275 276 276 275 274 273 273 274 275 276 278 279 281 282 281 281 280 280 281 280 279 280 279 279 277 277 278 278 278 278 278 279 279 279 281 282 282 283 284 283
275 275 276 276 276 275 274 273 272 273 274 276 277 278 280 280 280 280 280 280 280 281 281 281 280 279 278 278 278 278 278 278 278 278 279 279 280 281 282 282 282 283 283
Height
5682 5684 5686 5688 5690 5691 5693 5694 5695 5697 5698 5699 5700 5700 5701 5702 5702 5702 5702 5702 5702 5702 5702 5702 5702 5702 5701 5700 5699 5698 5697 5696 5697 5697 5695 5693 5691 5690 5688 5686 5684 5682 5680
5675 5676 5678 5680 5681 5683 5684 5685 5686 5687 5688 5688 5689 5689 5690 5690 5690 5690 5690 5690 5690 5690 5690 5690 5689 5689 5688 5687 5686 5685 5684 5682 5681 5682 5681 5679 5676 5674 5672 5671 5669 5667 5664
5666 5668 5670 5671 5673 5674 5675 5676 5677 5677 5677 5678 5678 5678 5678 5678 5678 5677 5677 5677 5677 5676 5677 5676 5676 5675 5675 5674 5672 5671 5669 5667 5666 5665 5665 5664 5661 5659 5657 5655 5653 5651 5649
5657 5659 5660 5662 5663 5664 5665 5665 5666 5666 5667 5667 5666 5666 5666 5665 5665 5664 5664 5664 5664 5663 5663 5663 5662 5661 5660 5659 5658 5656 5654 5652 5650 5649 5649 5648 5646 5644 5641 5639 5638 5636 5633
5648 5649 5651 5652 5653 5653 5654 5654 5655 5655 5655 5655 5654 5653 5652 5652 5651 5651 5650 5650 5650 5649 5649 5648 5647 5646 5645 5643 5642 5641 5638 5637 5635 5634 5633 5632 5630 5628 5625 5623 5621 5620 5618
5637 5639 5640 5641 5642 5642 5643 5643 5643 5643 5643 5642 5641 5641 5640 5639 5638 5637 5636 5635 5635 5634 5634 5633 5632 5630 5629 5628 5627 5625 5623 5621 5620 5618 5617 5615 5614 5611 5609 5606 5604 5603 5603
5626 5628 5629 5629 5630 5630 5631 5631 5631 5630 5630 5629 5628 5627 5626 5625 5623 5622 5621 5621 5620 5620 5618 5617 5616 5615 5613 5612 5611 5610 5608 5606 5604 5602 5601 5599 5597 5595 5592 5590 5587 5585 5585
5614 5616 5617 5617 5618 5618 5618 5618 5617 5617 5616 5615 5614 5613 5612 5611 5609 5608 5607 5606 5606 5605 5603 5602 5601 5599 5597 5596 5595 5594 5592 5590 5588 5586 5585 5583 5580 5578 5575 5573 5571 5570 5569
5603 5604 5604 5605 5605 5605 5605 5604 5604 5603 5602 5601 5600 5599 5598 5597 5595 5594 5592 5592 5591 5590 5589 5587 5585 5584 5582 5580 5578 5577 5576 5574 5572 5569 5568 5566 5564 5562 5559 5557 5556 5553 5553
5590 5591 5591 5592 5592 5592 5591 5590 5590 5589 5588 5587 5587 5585 5584 5582 5581 5579 5577 5576 5576 5575 5574 5572 5570 5568 5566 5564 5562 5561 5560 5558 5556 5554 5552 5550 5548 5546 5544 5541 5539 5537 5536
5577 5578 5578 5579 5578 5578 5577 5577 5576 5575 5574 5573 5572 5571 5570 5568 5566 5564 5562 5561 5560 5559 5558 5557 5555 5552 5550 5548 5546 5545 5543 5542 5540 5538 5537 5535 5533 5531 5529 5526 5524 5522 5520
5565 5565 5565 5565 5565 5564 5564 5563 5562 5561 5560 5559 5558 5557 5556 5554 5552 5550 5548 5546 5544 5543 5543 5541 5539 5537 5535 5533 5531 5529 5527 5525 5524 5523 5522 5520 5518 5516 5514 5512 5509 5507 5505
5551 5552 5552 5552 5552 5551 5550 5550 5549 5547 5546 5544 5544 5543 5542 5540 5537 5535 5533 5531 5529 5528 5527 5525 5523 5521 5519 5517 5516 5514 5512 5510 5509 5508 5507 5505 5503 5501 5499 5497 5495 5493 5492
5538 5539 5539 5539 5539 5538 5537 5536 5535 5533 5532 5530 5529 5528 5527 5525 5523 5520 5518 5516 5514 5512 5511 5509 5508 5506 5504 5502 5501 5499 5497 5496 5495 5494 5493 5491 5490 5488 5485 5483 5482 5480 5478
5526 5526 5526 5526 5525 5525 5524 5523 5521 5520 5518 5516 5514 5513 5511 5510 5508 5505 5502 5501 5499 5497 5496 5495 5493 5492 5490 5488 5487 5485 5484 5483 5482 5480 5479 5478 5476 5474 5472 5470 5468 5467 5465
5513 5513 5513 5513 5513 5512 5511 5510 5508 5506 5504 5502 5499 5498 5496 5494 5492 5490 5488 5486 5484 5483 5481 5480 5479 5477 5476 5475 5474 5472 5471 5470 5468 5467 5465 5464 5463 5461 5459 5457 5455 5454 5453
5501 5501 5501 5500 5500 5499 5498 5497 5496 5494 5491 5489 5486 5484 5481 5480 5478 5476 5474 5472 5471 5469 5468 5467 5466 5465 5463 5462 5461 5460 5458 5457 5455 5454 5452 5451 5449 5448 5446 5445 5443 5442 5440
5488 5488 5488 5488 5487 5486 5485 5483 5482 5480 5479 5477 5474 5470 5468 5466 5464 5462 5460 5459 5458 5457 5455 5454 5453 5452 5451 5450 5448 5447 5446 5444 5443 5441 5440 5438 5437 5435 5434 5433 5431 5430 5429
5476 5476 5475 5475 5474 5473 5472 5471 5469 5467 5466 5464 5461 5459 5456 5454 5452 5450 5448 5447 5446 5445 5443 5442 5441 5440 5439 5438 5436 5435 5434 5433 5431 5430 5428 5427 5425 5424 5423 5422 5421 5420 5418
5464 5463 5463 5462 5461 5460 5459 5458 5456 5455 5453 5451 5449 5447 5445 5443 5441 5439 5437 5435 5434 5433 5432 5430 5429 5428 5427 5426 5425 5424 5423 5421 5420 5419 5417 5416 5415 5413 5413 5412 5411 5410 5409
5451 5451 5450 5450 5449 5448 5446 5445 5444 5442 5440 5439 5437 5435 5433 5432 5430 5429 5427 5425 5423 5422 5420 5419 5418 5418 5417 5416 5415 5414 5412 5411 5409 5408 5407 5406 5405 5404 5403 5402 5401 5400 5399
5439 5439 5438 5437 5436 5435 5434 5433 5431 5430 5429 5427 5426 5424 5422 5421 5419 5418 5416 5414 5412 5411 5410 5409 5408 5408 5407 5406 5405 5404 5403 5401 5400 5399 5398 5397 5396 5395 5395 5394 5393 5392 5391
5427 5427 5426 5425 5424 5423 5422 5421 5420 5419 5418 5416 5415 5414 5412 5411 5409 5408 5406 5404 5403 5402 5401 5400 5399 5398 5397 5396 5395 5394 5393 5392 5391 5390 5390 5389 5388 5387 5386 5385 5385 5384 5382
5416 5415 5414 5413 5412 5411 5410 5409 5409 5408 5407 5406 5405 5404 5403 5401 5400 5398 5396 5395 5394 5393 5391 5391 5390 5389 5388 5387 5386 5385 5384 5383 5383 5382 5381 5381 5380 5379 5378 5378 5377 5376 5375
5404 5403 5403 5402 5401 5400 5399 5398 5398 5397 5397 5396 5395 5394 5393 5392 5390 5389 5387 5386 5385 5384 5383 5382 5381 5380 5379 5378 5377 5377 5376 5375 5375 5374 5373 5373 5373 5372 5371 5370 5370 5369 5368
5393 5392 5391 5391 5390 5389 5388 5388 5387 5387 5387 5386 5385 5384 5383 5382 5381 5380 5379 5378 5377 5376 5375 5374 5373 5372 5371 5370 5369 5369 5368 5367 5367 5366 5366 5366 5365 5365 5364 5363 5363 5362 5362